This is the latest recevied weather packets stored in our database for station/object NY5V. If no packets are shown the sender has not sent any weather packets the latest 10 day(s).
| Time | Temp. | Humidity | Pressure | Rain* | Wind** | Luminosity | Snow |
|---|---|---|---|---|---|---|---|
| 1777747068 | 22.22° C | 48% | 1020.7 hPa | 0 mm | - | 624 W/m² | - |
| 1777746465 | 22.22° C | 47% | 1020.7 hPa | 0 mm | - | 741 W/m² | - |
| 1777745863 | 22.22° C | 47% | 1021 hPa | 0 mm | - | 791 W/m² | - |
| 1777745260 | 22.22° C | 47% | 1021.1 hPa | 0 mm | - | 748 W/m² | - |
| 1777744657 | 22.22° C | 48% | 1021.2 hPa | 0 mm | - | 753 W/m² | - |
| 1777744055 | 21.67° C | 50% | 1021.2 hPa | 0 mm | - | 750 W/m² | - |
| 1777743455 | 21.67° C | 51% | 1021.3 hPa | 0 mm | - | 751 W/m² | - |
| 1777742851 | 21.67° C | 50% | 1021.5 hPa | 0 mm | - | 747 W/m² | - |
| 1777742248 | 22.22° C | 52% | 1021.5 hPa | 0 mm | - | 739 W/m² | - |
| 1777741648 | 21.67° C | 50% | 1021.7 hPa | 0 mm | - | 736 W/m² | - |
| 1777741047 | 20.56° C | 48% | 1021.6 hPa | 0 mm | - | 732 W/m² | - |
| 1777740446 | 21.11° C | 56% | 1021.6 hPa | 0 mm | - | 719 W/m² | - |
| 1777739846 | 21.11° C | 55% | 1021.6 hPa | 0 mm | - | 702 W/m² | - |
| 1777739245 | 21.11° C | 56% | 1021.5 hPa | 0 mm | - | 681 W/m² | - |
| 1777738645 | 20.56° C | 60% | 1021.6 hPa | 0 mm | - | 668 W/m² | - |
| 1777738040 | 20° C | 62% | 1021.6 hPa | 0 mm | - | 650 W/m² | - |
| 1777737437 | 20° C | 61% | 1021.3 hPa | 0 mm | - | 629 W/m² | - |
| 1777736836 | 20° C | 64% | 1021.6 hPa | 0 mm | - | 610 W/m² | - |
| 1777736217 | 19.44° C | 66% | 1021.3 hPa | 0 mm | - | 588 W/m² | - |
| 1777735617 | 19.44° C | 70% | 1021.4 hPa | 0 mm | - | 564 W/m² | - |
| 1777735012 | 18.89° C | 72% | 1021.3 hPa | 0 mm | - | 541 W/m² | - |
| 1777734412 | 17.78° C | 75% | 1021.4 hPa | 0 mm | - | 518 W/m² | - |
| 1777733810 | 17.22° C | 78% | 1021.1 hPa | 0 mm | - | 51 W/m² | - |
| 1777733209 | 16.67° C | 77% | 1021.3 hPa | 0 mm | - | 47 W/m² | - |
| 1777732608 | 16.67° C | 78% | 1021.1 hPa | 0 mm | - | 45 W/m² | - |
* Rain latest hour (hover to see other rain measurements)
** Current wind speed in m/s (hover to see current wind gust speed)